Regional Weather Roundup
Issued by NWS

Home | Current Version | Previous Version | Graphics & Text | Print | Product List | Glossary Off
Versions: 1 2 3 4 5 6 7 8 9 10 11 12 13 14 15 16 17 18 19 20 21 22 23 24 25 26 27 28 29

000
ASUS43 KDMX 311307
RWRIA

WEATHER ROUNDUP FOR IOWA
NATIONAL WEATHER SERVICE DES MOINES IA
800 AM CDT FRI OCT 31 2014

NOTE: "FAIR" INDICATES FEW OR NO CLOUDS BELOW 12,000 FEET WITH NO
SIGNIFICANT WEATHER AND/OR OBSTRUCTIONS TO VISIBILITY.

* - THESE STATIONS ARE NOT NWS STATIONS...THUS NOT UNDER NWS
QUALITY CONTROL.  THEY ALSO DO NOT REPORT WEATHER SUCH
AS PRECIPITATION OR FOG.

IAZ001>003-012>014-020>022-031>034-043>046-311400-
   NORTHWEST IOWA

CITY           SKY/WX    TMP DP  RH WIND       PRES   REMARKS
CARROLL *      CLEAR     25  19  80 N12       30.50R WCI  14
CHEROKEE *     CLEAR     23  19  86 N5        30.54R WCI  17
DENISON *      CLEAR     23  19  86 NW3       30.51R
LE MARS *      CLEAR     23  19  86 N5        30.57R WCI  17
ORANGE CITY *  CLEAR     23  18  80 N7        30.54R WCI  15
SHELDON *      CLEAR     19  16  86 NW6       30.54R WCI  11
SIOUX CITY     CLEAR     23  19  85 NW8       30.57S WCI  14
SPENCER        CLEAR     22  17  81 N13       30.52R WCI  10
STORM LAKE *   CLEAR     21  18  86 N8        30.52R WCI  12
$$

IAZ055>058-069>071-079>083-090>094-311400-
   SOUTHWEST IOWA

CITY           SKY/WX    TMP DP  RH WIND       PRES   REMARKS
ATLANTIC *     CLEAR     27  19  74 N13G18    30.50R WCI  16
AUDUBON *      CLEAR     27  18  69 N13       30.49R WCI  16
COUNCIL BLFS * CLEAR     27  23  86 N10       30.51R WCI  17
CRESTON *      CLEAR     27  18  69 N15G22    30.45R WCI  15
HARLAN  *      CLEAR     25  21  86 NW9       30.55R WCI  15
LAMONI         CLEAR     29  17  61 N12G21    30.42R WCI  19
RED OAK *      CLEAR     28  21  74 N10       30.51R WCI  19
SHENANDOAH *   CLEAR     28  21  74 N8        30.53R WCI  20
$$

IAZ047>049-059>061-072>074-084-311400-
   CENTRAL IOWA

CITY           SKY/WX    TMP DP  RH WIND       PRES   REMARKS
AMES           CLEAR     27  17  66 N12       30.46R WCI  17
ANKENY *       CLEAR     28  18  64 N14G25    30.45R WCI  17
CHARITON *     CLEAR     30  18  59 N17G23    30.42R WCI  18
DES MOINES     CLEAR     30  16  56 N15G23    30.46R WCI  19
GRINNELL*      CLEAR     28  19  69 N15G22    30.41R WCI  17
KNOXVILLE *    CLEAR     30  16  55 N14G21    30.41R WCI  20
MARSHALLTOWN   CLEAR     27  18  69 N13       30.42R WCI  16
PELLA *        CLEAR     28  19  69 N14G23    30.44R WCI  17
PERRY *          N/A     28  21  74 N10       30.49R WCI  19
$$

IAZ004>006-015-016-023>025-035-036-311400-
   NORTH CENTRAL IOWA

CITY           SKY/WX    TMP DP  RH WIND       PRES   REMARKS
ALGONA *       CLEAR     25  19  80 N10G17    30.49R WCI  15
CLARION *      CLEAR     25  18  74 N12       30.46R WCI  14
ESTHERVILLE    CLEAR     22  17  81 N12       30.50R WCI  10
FORT DODGE *   CLEAR     27  16  63 N7        30.49R WCI  19
MASON CITY     CLEAR     23  18  81 N12       30.46R WCI  12
FOREST CITY *  CLEAR     27  21  80 N10       30.46R WCI  17
IOWA FALLS *     N/A     27  19  74 N15G21    30.45R WCI  15
$$

IAZ007>011-017>019-026>030-037>042-050>054-066-311400-
   NORTHEAST IOWA

CITY           SKY/WX    TMP DP  RH WIND       PRES   REMARKS
CEDAR RAPIDS   CLEAR     29  20  69 N15G28    30.34S WCI  18
CHARLES CITY * CLEAR     27  18  69 N12G18    30.42R WCI  16
CLINTON *      CLEAR     32  19  59 N20G26    30.30R WCI  20
DECORAH *      CLEAR     27  19  74 N9G16     30.37R WCI  17
DUBUQUE        MOCLDY    30  21  69 N17       30.30R WCI  18
MONTICELLO *   CLEAR     30  21  69 N17       30.33R WCI  18
OELWEIN *      CLEAR     27  19  74 N16G22    30.38R WCI  14
WATERLOO       CLEAR     27  18  69 N16       30.40R WCI  15
$$

IAZ064-065-067-068-078-311400-
   EAST CENTRAL IOWA

CITY           SKY/WX    TMP DP  RH WIND       PRES   REMARKS
DAVENPORT      CLEAR     31  19  61 NW17      30.29R WCI  19
IOWA CITY      CLEAR     31  20  63 N15G28    30.36R WCI  20
MT. PLEASANT * CLEAR     30  19  64 N22G29    30.34R WCI  17
MUSCATINE *    CLEAR     32  19  59 NW22      30.33S WCI  19
QUAD CITIES    PTCLDY    33  20  58 N12G24    30.29R WCI  24
$$

IAZ062-063-075>077-085>089-095>099-311400-
   SOUTHEAST IOWA

CITY           SKY/WX    TMP DP  RH WIND       PRES   REMARKS
BURLINGTON     CLEAR     32  19  58 N18G30    30.31R WCI  20
FAIRFIELD *    CLEAR     30  18  59 N14G25    30.37R WCI  20
FORT MADISON * CLEAR     32  21  64 NW15      30.33R WCI  22
KEOKUK *       CLEAR     32  18  55 N14G21    30.32R WCI  22
OSKALOOSA *      N/A     28  19  69 N16G22    30.40R WCI  17
CENTERVILLE *  CLEAR     30  18  59 N13G23    30.40R WCI  20
OTTUMWA        FLURRIES  29  17  61 N21       30.39R WCI  16
WASHINGTON *   CLEAR     30  21  69 N14G21    30.35S WCI  20
$$

ABBREVIATIONS USED IN REMARKS
   TC - TEMPERATURES IN CELSIUS
  WCI - WIND CHILL INDEX
   HX - HEAT INDEX
  VSB - VISIBILITY
$$




USA.gov is the U.S. government's official web portal to all federal, state and local government web resources and services.